Weather Roundup
Issued by NWS Chicago, IL

Home | Current Version | Previous Version | Text Only | Print | Product List | Glossary Off
Versions: 1 2 3 4 5 6 7 8 9 10 11 12 13 14 15 16 17 18 19 20 21 22 23 24 25 26 27 28 29 30 31 32 33 34 35 36 37 38 39 40 41 42 43 44 45 46 47 48 49 50

000
NZUS59 KLOT 202303
HRRLOT

CHICAGO AREA WEATHER ROUNDUP
NATIONAL WEATHER SERVICE CHICAGO/ROMEOVILLE IL
600 PM CDT FRI APR 20 2018

NOTE: "FAIR" INDICATES FEW OR NO CLOUDS BELOW 12,000 FEET WITH NO
SIGNIFICANT WEATHER AND/OR OBSTRUCTIONS TO VISIBILITY.

* THESE STATIONS ARE NOT UNDER NWS QUALITY CONTROL. THEY ALSO MAY NOT
  REPORT WEATHER SUCH AS PRECIPITATION OR FOG.

ILZ005-006-012>014-019>023-210000-
NORTHEAST ILLINOIS

CITY           SKY/WX    TMP DP  RH WIND       PRES   REMARKS
OHARE            N/A     56  11  16 E14       30.42F
MIDWAY         PTSUNNY   56  11  16 E15       30.44F
AURORA           N/A     60  16  18 CALM      30.40F
LANSING*         N/A     54  21  28 E12       30.44F
JOLIET*          N/A     61  19  20 NE7       30.41F
WAUKEGAN         N/A     49  16  26 E9        30.44F
DUPAGE AIRPORT   N/A     60  13  15 CALM      30.40F
WHEELING         N/A     56  13  18 E8        30.45F
KANKAKEE*        N/A     61  18  19 E6        30.42F
MORRIS*          N/A     60  17  18 CALM      30.40F
LEWIS AIRPORT*   N/A     58  22  24 E13       30.41F
NORTHERLY ISL    N/A     45  30  56 E5          N/A
$$

WIZ051-052-058>065-066-070>072-210000-
SOUTHEAST WISCONSIN

CITY           SKY/WX    TMP DP  RH WIND       PRES   REMARKS
MILWAUKEE      PTSUNNY   49  21  33 SE10      30.44F
KENOSHA*         N/A     52  19  27 E9        30.44F
RACINE*          N/A     49  13  23 SE9       30.46F
BURLINGTON       N/A     56  13  18 CALM      30.43F
WAUKESHA       SUNNY     54  14  20 CALM      30.44F
WEST BEND        N/A     54  14  20 CALM      30.43F
$$

INZ001>003-010>013-019-020-210000-
NORTHWEST INDIANA

CITY           SKY/WX    TMP DP  RH WIND       PRES   REMARKS
GARY*          MOSUNNY   54   7  15 E6        30.46F
MICHIGAN CITY* NOT AVBL
RENSSELAER*    NOT AVBL
VALPARAISO       N/A     57  13  17 N10       30.44F
$$

LMZ740>746-210000-
SOUTHERN LAKE MICHIGAN

STATION/POSITION TIME  SKY/WX   TEMP WIND        PRES    VSBY
                                AIR  DIR/SP/G
                 (UTC)          (F)  (DEG/KT/KT) (MB)    (MI)
HARRISON CRIB    2240            45  100/ 13/ 13   N/A
BURNHAM HARBOR   2300            44   70/  5       N/A
CALUMET HARBOR   2230            46   70/  8/ 10 1030.6F
BURNS HARBOR     2240            46   70/  7/  7 1032.2F
MICHIGAN CITY    2240            41   30/  4/  5   N/A
$$

ABBREVIATIONS USED IN REMARKS
   TC - TEMPERATURE IN CELSIUS
  WCI - WIND CHILL INDEX
   HX - HEAT INDEX
  VSB - VISIBILITY
$$



USA.gov is the U.S. government's official web portal to all federal, state and local government web resources and services.